Showing default

QIANFAN-71, 62801

Orbit data source: Space-Track

QIANFAN-71, 62801 is a Chinese payload satellite in LEO that was launched on Thu, 23 Jan 2025 UTC via a CHANG ZHENG 6A launch vehicle from the Taiyaun Space Center, China (TSC). Payload-class satellites include a variety of spacecraft equipped with specific instruments for various scientific and technological missions. These include communications satellites like Starlink; space stations such as the ISS; scientific satellites like the Hubble; Earth observation satellites from companies like Planet Labs, Umbra, and HawkEye 360; GPS; miniature CubeSats for education and research; and military/defense satellites.

Loading next visibility...
Identifier
62801, 2025-016S
Orbit
LEO
Country
Flag of CNCN / PRC
Related business
Manufacturer
SECM
Mission
Operational Commercial Communications
Bus & Motor
QIANFAN, Unknown motor
Mass
267 kg wet, ~267 kg dry
Launch date (UTC)
2025-01-23 (9 months ago)
Launch vehicle
CHANG ZHENG 6A
Launch site
Taiyaun Space Center, China (TSC)
Object type
Payload
Rocket body
Debris
Shape & HBR
Box + 1 Pan, 1.3 m
Radar Cross Section
13.200 m², Large (>1 m²)

Expand to show TLE details & history
Last TLE update: 18 hours ago

TLE from 18 hours ago
0 QIANFAN-71
1 62801U 25016S   25286.93988986  .00000074  00000-0  96503-4 0  9992
2 62801  88.9730 109.2712 0016337 155.7384 204.4540 13.50972145 39164
Epoch: 2025-10-13T22:33Z
TLE epoch observation values (Epoch: 2025-10-13T22:33:26.483Z)
Latitude
-0.00003°
Longitude
108.17538°
Altitude
1,082.717 km
Speed
7.305 km/s
True Right ascension
07h 17m 05s
True Declination
0° 00' 00"
Sunlit
Object was in daylight at epoch
Visualization orbit readout
Latitude
Unknown
Longitude
Unknown
Altitude
Unknown
Speed
Unknown
Apparent Right ascension
Unknown
Apparent Declination
Unknown
Sunlit
N/A
Visualization observer readout
Local Sidereal Time
10:48:03
Azimuth
Unknown
Elevation
Unknown
Doppler factor
Unknown
Orbital elements
Apogee altitude
1,077.896 km
Perigee altitude
1,053.574 km
Semi-major axis
7,443.872 km
Eccentricity
0.00163
Inclination
88.973°
RAAN
109.2712°
Arg. of periapsis
155.7384°
True anomaly
204.37665°
Mean anomaly
204.454°
Eccentric anomaly
204.41531°
Mean motion
3.37944 °/min
Orbital period
106.53 mins
BSTAR
0.000096503
Loading maneuver chart data...
Computing Atmospheric mass density...
Loading historical data...
Loading historical data...
Loading historical data...
Loading historical data...
Loading historical data...
Loading historical data...
Loading historical data...

Documentation

Showing up to 5 results
|